User: anonymous   Login
Location: Hartman Creek State Park
(44.3257°N, 89.2134°W)
Time: 17:25:57
(UTC-05:00)
Language:

Cosmos 2263 Rocket - Orbit

View from above orbital plane
View from above orbital plane
View from above satellite
View from above satellite

Ground track
Ground track

The orbit data is extracted from the following two-line orbital elements,

1 22803U 93059B   15214.21250686  .00000219  00000-0  13354-3 0  9995
2 22803 070.9890 252.7823 0017866 341.7408 018.3071 14.16719184131269
Epoch (UTC): 02 August 2015 05:06:00
Eccentricity: 0.0017866
inclination: 70.9890°
perigee height: 823 km
apogee height: 849 km
right ascension of ascending node: 252.7823°
argument of perigee: 341.7408°
revolutions per day: 14.16719184
mean anomaly at epoch: 18.3071°
orbit number at epoch: 13126

The dashed part of the orbit path shows where the satellite is in the earth's shadow,  

DLR